GFSFLT2_prec_precacc12_114.txt.gz
Total_Precipitation_Accumulation
0.00 0.00 0.00 0.00 0.00 0.00 0.00 0.00 0.00 0.00 0.00 0.00 0.00 0.00 0.02 0.06 0.06 0.02 0.03 0.01 0.01 0.00 0.00 0.00 0.00 0.01 0.06 0.13 0.16 0.13 0.06 0.15
0.00 0.00 0.00 0.00 0.00 0.00 0.00 0.00 0.00 0.00 0.00 0.00 0.00 0.01 0.04 0.02 0.02 0.01 0.05 0.03 0.03 0.00 0.00 0.00 0.00 0.00 0.03 0.08 0.09 0.24 0.17 0.12
0.00 0.00 0.00 0.00 0.00 0.00 0.00 0.00 0.00 0.00 0.00 0.00 0.00 0.00 0.02 0.02 0.04 0.07 0.09 0.01 0.01 0.00 0.00 0.00 0.00 0.00 0.08 0.32 0.12 0.14 0.14 0.04
0.00 0.00 0.00 0.00 0.00 0.00 0.00 0.00 0.00 0.00 0.00 0.00 0.00 0.00 0.01 0.06 0.04 0.04 0.03 0.04 0.01 0.00 0.00 0.00 0.00 0.00 0.00 0.12 0.18 0.34 0.29 0.21
0.00 0.00 0.00 0.00 0.00 0.00 0.00 0.00 0.00 0.00 0.00 0.00 0.00 0.00 0.00 0.01 0.00 0.01 0.03 0.03 0.01 0.00 0.00 0.00 0.00 0.00 0.00 0.01 0.04 0.16 0.15 0.21
0.00 0.00 0.00 0.00 0.00 0.00 0.00 0.00 0.00 0.00 0.00 0.00 0.00 0.00 0.00 0.00 0.00 0.00 0.01 0.02 0.01 0.00 0.00 0.00 0.00 0.00 0.00 0.01 0.02 0.16 0.12 0.16
0.00 0.00 0.00 0.00 0.00 0.00 0.00 0.00 0.00 0.00 0.00 0.00 0.00 0.00 0.00 0.00 0.00 0.00 0.00 0.00 0.00 0.00 0.00 0.00 0.00 0.00 0.00 0.01 0.01 0.13 0.13 0.24
0.00 0.00 0.00 0.00 0.00 0.00 0.00 0.00 0.00 0.00 0.00 0.00 0.00 0.00 0.00 0.00 0.00 0.00 0.00 0.02 0.02 0.02 0.00 0.04 0.03 0.01 0.00 0.01 0.04 0.13 0.17 0.23
0.00 0.00 0.00 0.00 0.00 0.00 0.00 0.00 0.00 0.00 0.00 0.00 0.00 0.00 0.00 0.00 0.00 0.01 0.03 0.04 0.05 0.06 0.11 0.05 0.03 0.02 0.03 0.04 0.08 0.12 0.11 0.18
0.00 0.00 0.00 0.00 0.00 0.00 0.00 0.00 0.00 0.00 0.00 0.00 0.00 0.00 0.00 0.00 0.00 0.00 0.04 0.06 0.03 0.10 0.09 0.05 0.02 0.02 0.02 0.05 0.09 0.05 0.06 0.14
0.00 0.00 0.00 0.00 0.00 0.00 0.00 0.00 0.00 0.00 0.00 0.00 0.00 0.00 0.00 0.00 0.00 0.00 0.02 0.06 0.07 0.07 0.03 0.02 0.02 0.03 0.07 0.12 0.11 0.05 0.04 0.11
0.00 0.00 0.00 0.00 0.00 0.01 0.00 0.00 0.00 0.00 0.00 0.00 0.00 0.00 0.00 0.00 0.00 0.00 0.01 0.03 0.08 0.08 0.06 0.03 0.02 0.04 0.13 0.20 0.16 0.09 0.06 0.15
0.00 0.00 0.00 0.00 0.00 0.00 0.00 0.00 0.00 0.00 0.00 0.00 0.00 0.00 0.00 0.00 0.00 0.00 0.00 0.01 0.01 0.03 0.08 0.06 0.03 0.04 0.21 0.33 0.20 0.14 0.07 0.13
0.00 0.00 0.00 0.00 0.00 0.02 0.01 0.00 0.00 0.00 0.00 0.00 0.00 0.00 0.00 0.00 0.00 0.00 0.00 0.00 0.02 0.03 0.04 0.02 0.02 0.06 0.11 0.22 0.21 0.35 0.14 0.07
0.00 0.00 0.00 0.02 0.03 0.03 0.03 0.02 0.02 0.02 0.00 0.00 0.00 0.00 0.00 0.00 0.00 0.00 0.00 0.00 0.01 0.06 0.09 0.05 0.03 0.06 0.09 0.08 0.08 0.14 0.08 0.03
0.00 0.02 0.04 0.02 0.08 0.05 0.05 0.02 0.00 0.00 0.00 0.00 0.00 0.00 0.00 0.00 0.00 0.00 0.00 0.01 0.03 0.16 0.26 0.25 0.16 0.15 0.15 0.06 0.04 0.02 0.03 0.06
0.00 0.01 0.08 0.11 0.09 0.10 0.13 0.06 0.06 0.02 0.03 0.02 0.03 0.01 0.00 0.00 0.00 0.00 0.00 0.01 0.05 0.12 0.30 0.33 0.35 0.24 0.18 0.10 0.05 0.03 0.03 0.04
0.00 0.00 0.01 0.05 0.07 0.07 0.04 0.03 0.01 0.01 0.01 0.01 0.01 0.01 0.00 0.00 0.01 0.01 0.01 0.01 0.07 0.17 0.21 0.33 0.31 0.34 0.29 0.23 0.14 0.06 0.03 0.02
0.00 0.00 0.00 0.01 0.02 0.05 0.06 0.10 0.02 0.01 0.01 0.00 0.00 0.00 0.00 0.00 0.00 0.01 0.01 0.02 0.08 0.21 0.29 0.30 0.43 0.40 0.38 0.28 0.18 0.14 0.08 0.07
0.00 0.00 0.00 0.01 0.01 0.03 0.04 0.06 0.04 0.03 0.00 0.00 0.01 0.00 0.00 0.00 0.00 0.00 0.00 0.01 0.05 0.17 0.32 0.34 0.33 0.55 0.55 0.55 0.40 0.25 0.19 0.17

GFSFLT2_prec_precacc12_117.txt.gz
Total_Precipitation_Accumulation
0.00 0.00 0.00 0.00 0.00 0.00 0.00 0.00 0.00 0.00 0.00 0.00 0.00 0.00 0.00 0.00 0.00 0.01 0.02 0.01 0.00 0.00 0.00 0.00 0.00 0.00 0.00 0.01 0.07 0.13 0.05 0.10
0.00 0.00 0.00 0.00 0.00 0.00 0.00 0.00 0.00 0.00 0.00 0.00 0.00 0.00 0.00 0.00 0.00 0.01 0.04 0.02 0.00 0.00 0.00 0.00 0.00 0.00 0.02 0.05 0.06 0.20 0.11 0.09
0.00 0.00 0.00 0.00 0.00 0.00 0.00 0.00 0.00 0.00 0.00 0.00 0.00 0.00 0.00 0.00 0.00 0.03 0.08 0.01 0.00 0.00 0.00 0.00 0.00 0.00 0.08 0.34 0.29 0.20 0.15 0.06
0.00 0.00 0.00 0.00 0.00 0.00 0.00 0.00 0.00 0.00 0.00 0.00 0.00 0.00 0.00 0.00 0.00 0.00 0.01 0.02 0.01 0.00 0.00 0.00 0.00 0.00 0.00 0.12 0.22 0.46 0.44 0.37
0.00 0.00 0.00 0.00 0.00 0.00 0.00 0.00 0.00 0.00 0.00 0.00 0.00 0.00 0.00 0.00 0.00 0.00 0.00 0.00 0.01 0.00 0.00 0.00 0.00 0.00 0.00 0.01 0.02 0.14 0.24 0.37
0.00 0.00 0.00 0.00 0.00 0.00 0.00 0.00 0.00 0.00 0.00 0.00 0.00 0.00 0.00 0.00 0.00 0.00 0.00 0.00 0.00 0.00 0.00 0.00 0.00 0.00 0.00 0.01 0.01 0.10 0.14 0.24
0.00 0.00 0.00 0.00 0.00 0.00 0.00 0.00 0.00 0.00 0.00 0.00 0.00 0.00 0.00 0.00 0.00 0.00 0.00 0.00 0.00 0.00 0.00 0.00 0.00 0.00 0.00 0.00 0.00 0.05 0.14 0.26
0.00 0.00 0.00 0.00 0.00 0.00 0.00 0.00 0.00 0.00 0.00 0.00 0.00 0.00 0.00 0.00 0.00 0.00 0.00 0.00 0.00 0.00 0.00 0.00 0.00 0.01 0.00 0.00 0.00 0.03 0.16 0.30
0.00 0.00 0.00 0.00 0.00 0.00 0.00 0.00 0.00 0.00 0.00 0.00 0.00 0.00 0.00 0.00 0.00 0.00 0.00 0.00 0.00 0.00 0.00 0.00 0.02 0.02 0.00 0.00 0.02 0.03 0.09 0.22
0.00 0.00 0.00 0.00 0.00 0.00 0.00 0.00 0.00 0.00 0.00 0.00 0.00 0.00 0.00 0.00 0.00 0.00 0.00 0.00 0.00 0.00 0.00 0.02 0.02 0.02 0.00 0.01 0.01 0.01 0.04 0.14
0.00 0.00 0.00 0.00 0.00 0.00 0.00 0.00 0.00 0.00 0.00 0.00 0.00 0.00 0.00 0.00 0.00 0.00 0.00 0.00 0.00 0.00 0.00 0.01 0.01 0.02 0.04 0.03 0.01 0.01 0.04 0.11
0.00 0.00 0.00 0.00 0.00 0.01 0.00 0.00 0.00 0.00 0.00 0.00 0.00 0.00 0.00 0.00 0.00 0.00 0.00 0.01 0.01 0.00 0.02 0.02 0.02 0.03 0.06 0.06 0.05 0.05 0.06 0.15
0.00 0.00 0.00 0.00 0.00 0.00 0.00 0.01 0.00 0.00 0.00 0.00 0.00 0.00 0.00 0.00 0.00 0.00 0.00 0.01 0.00 0.01 0.03 0.05 0.03 0.02 0.09 0.10 0.09 0.13 0.07 0.13
0.00 0.01 0.00 0.00 0.00 0.09 0.07 0.04 0.00 0.00 0.00 0.00 0.00 0.00 0.00 0.00 0.00 0.00 0.00 0.00 0.01 0.01 0.01 0.01 0.01 0.03 0.07 0.12 0.17 0.34 0.14 0.07
0.00 0.00 0.01 0.07 0.16 0.15 0.09 0.04 0.03 0.02 0.00 0.00 0.00 0.00 0.00 0.00 0.00 0.00 0.00 0.00 0.01 0.01 0.01 0.02 0.02 0.03 0.05 0.07 0.08 0.14 0.08 0.04
0.00 0.00 0.05 0.14 0.27 0.07 0.10 0.04 0.01 0.00 0.00 0.00 0.00 0.00 0.00 0.00 0.00 0.00 0.00 0.00 0.01 0.01 0.02 0.04 0.09 0.10 0.06 0.05 0.05 0.02 0.03 0.06
0.00 0.01 0.04 0.09 0.11 0.11 0.14 0.07 0.08 0.02 0.03 0.02 0.03 0.02 0.00 0.00 0.00 0.00 0.00 0.00 0.01 0.02 0.03 0.07 0.14 0.20 0.15 0.07 0.06 0.04 0.03 0.04
0.00 0.00 0.01 0.04 0.07 0.08 0.05 0.04 0.02 0.02 0.01 0.01 0.01 0.01 0.00 0.00 0.01 0.01 0.01 0.01 0.01 0.02 0.04 0.10 0.19 0.27 0.26 0.22 0.13 0.07 0.04 0.03
0.00 0.00 0.00 0.00 0.02 0.05 0.07 0.11 0.03 0.01 0.01 0.00 0.00 0.00 0.00 0.00 0.00 0.01 0.01 0.01 0.01 0.02 0.06 0.15 0.33 0.34 0.33 0.25 0.16 0.13 0.08 0.07
0.00 0.00 0.00 0.00 0.01 0.04 0.05 0.07 0.06 0.05 0.01 0.02 0.06 0.02 0.01 0.01 0.00 0.01 0.02 0.02 0.02 0.03 0.08 0.18 0.24 0.48 0.46 0.46 0.33 0.21 0.18 0.19

GFSFLT2_prec_precacc12_120.txt.gz
Total_Precipitation_Accumulation
0.00 0.00 0.00 0.00 0.00 0.00 0.00 0.00 0.00 0.00 0.00 0.00 0.00 0.00 0.00 0.00 0.00 0.00 0.00 0.02 0.01 0.00 0.00 0.00 0.00 0.00 0.00 0.00 0.02 0.16 0.10 0.08
0.00 0.00 0.00 0.00 0.00 0.00 0.00 0.00 0.00 0.00 0.00 0.00 0.00 0.00 0.00 0.00 0.00 0.00 0.00 0.00 0.00 0.00 0.00 0.00 0.00 0.01 0.01 0.08 0.19 0.28 0.11 0.08
0.00 0.00 0.00 0.00 0.00 0.00 0.00 0.00 0.00 0.00 0.00 0.00 0.00 0.00 0.00 0.00 0.00 0.01 0.03 0.00 0.00 0.00 0.00 0.00 0.00 0.00 0.06 0.31 0.33 0.23 0.20 0.14
0.00 0.00 0.00 0.00 0.00 0.00 0.00 0.00 0.00 0.00 0.00 0.00 0.00 0.01 0.01 0.00 0.00 0.00 0.00 0.01 0.01 0.00 0.00 0.00 0.00 0.00 0.01 0.08 0.20 0.49 0.50 0.47
0.00 0.00 0.00 0.00 0.00 0.00 0.00 0.00 0.00 0.00 0.00 0.00 0.00 0.01 0.02 0.00 0.00 0.00 0.00 0.00 0.00 0.00 0.00 0.00 0.00 0.00 0.00 0.02 0.07 0.16 0.27 0.39
0.00 0.00 0.00 0.00 0.00 0.00 0.00 0.00 0.00 0.00 0.00 0.00 0.00 0.00 0.01 0.00 0.00 0.00 0.00 0.00 0.00 0.00 0.00 0.00 0.00 0.00 0.00 0.01 0.04 0.09 0.14 0.29
0.00 0.00 0.00 0.00 0.00 0.00 0.00 0.00 0.00 0.00 0.00 0.00 0.00 0.00 0.00 0.00 0.00 0.00 0.00 0.00 0.00 0.00 0.00 0.00 0.00 0.00 0.00 0.00 0.01 0.04 0.15 0.30
0.00 0.00 0.00 0.00 0.00 0.00 0.00 0.00 0.00 0.00 0.00 0.00 0.00 0.00 0.00 0.00 0.00 0.00 0.00 0.00 0.00 0.00 0.00 0.00 0.00 0.00 0.00 0.00 0.00 0.03 0.13 0.30
0.00 0.00 0.00 0.00 0.00 0.00 0.00 0.00 0.00 0.00 0.00 0.00 0.00 0.00 0.00 0.00 0.00 0.00 0.00 0.00 0.00 0.01 0.00 0.00 0.00 0.00 0.00 0.00 0.00 0.01 0.07 0.20
0.00 0.00 0.00 0.00 0.00 0.00 0.00 0.00 0.00 0.00 0.00 0.00 0.00 0.00 0.00 0.00 0.00 0.00 0.01 0.00 0.00 0.00 0.00 0.00 0.00 0.00 0.00 0.00 0.00 0.00 0.01 0.10
0.00 0.00 0.00 0.00 0.00 0.00 0.00 0.00 0.00 0.00 0.00 0.00 0.00 0.00 0.00 0.00 0.00 0.00 0.01 0.01 0.00 0.00 0.00 0.00 0.00 0.00 0.03 0.02 0.00 0.00 0.00 0.05
0.00 0.00 0.00 0.00 0.00 0.01 0.00 0.00 0.00 0.00 0.00 0.00 0.00 0.00 0.00 0.00 0.00 0.00 0.00 0.01 0.01 0.00 0.00 0.00 0.00 0.02 0.05 0.04 0.01 0.00 0.01 0.05
0.00 0.00 0.00 0.00 0.00 0.00 0.00 0.02 0.00 0.00 0.00 0.00 0.00 0.00 0.00 0.00 0.00 0.00 0.00 0.00 0.00 0.00 0.00 0.01 0.01 0.02 0.09 0.07 0.04 0.02 0.01 0.05
0.00 0.01 0.00 0.01 0.00 0.09 0.07 0.04 0.00 0.00 0.00 0.00 0.00 0.00 0.00 0.00 0.00 0.00 0.00 0.00 0.00 0.01 0.01 0.01 0.01 0.03 0.07 0.08 0.09 0.15 0.07 0.04
0.00 0.01 0.01 0.07 0.16 0.15 0.09 0.04 0.03 0.02 0.00 0.00 0.00 0.00 0.00 0.00 0.00 0.00 0.00 0.00 0.00 0.01 0.01 0.02 0.02 0.02 0.04 0.04 0.04 0.05 0.05 0.03
0.00 0.00 0.04 0.14 0.25 0.06 0.10 0.04 0.01 0.00 0.00 0.00 0.01 0.00 0.00 0.00 0.00 0.00 0.00 0.00 0.01 0.01 0.01 0.02 0.04 0.03 0.04 0.04 0.05 0.02 0.02 0.04
0.00 0.01 0.04 0.09 0.07 0.08 0.13 0.07 0.08 0.02 0.03 0.03 0.04 0.03 0.00 0.00 0.00 0.00 0.00 0.00 0.01 0.01 0.01 0.04 0.05 0.04 0.02 0.03 0.05 0.05 0.03 0.03
0.00 0.01 0.03 0.16 0.17 0.19 0.19 0.17 0.04 0.02 0.02 0.01 0.01 0.01 0.01 0.00 0.00 0.01 0.00 0.01 0.00 0.01 0.01 0.03 0.04 0.05 0.06 0.10 0.11 0.07 0.03 0.03
0.01 0.01 0.02 0.09 0.17 0.26 0.19 0.28 0.15 0.02 0.02 0.01 0.01 0.02 0.01 0.01 0.01 0.00 0.01 0.01 0.01 0.01 0.02 0.03 0.05 0.06 0.09 0.15 0.16 0.12 0.07 0.07
0.03 0.01 0.01 0.02 0.06 0.15 0.11 0.14 0.06 0.05 0.02 0.03 0.06 0.02 0.01 0.03 0.07 0.09 0.07 0.04 0.02 0.02 0.03 0.03 0.04 0.12 0.22 0.28 0.27 0.18 0.15 0.18

GFSFLT2_prec_precacc12_123.txt.gz
Total_Precipitation_Accumulation
0.00 0.00 0.00 0.00 0.00 0.00 0.00 0.00 0.00 0.00 0.00 0.00 0.01 0.03 0.00 0.00 0.00 0.00 0.00 0.03 0.01 0.00 0.00 0.00 0.00 0.00 0.00 0.01 0.06 0.20 0.18 0.15
0.00 0.00 0.00 0.00 0.00 0.00 0.00 0.00 0.00 0.00 0.00 0.00 0.00 0.03 0.01 0.00 0.00 0.00 0.00 0.00 0.00 0.00 0.00 0.00 0.00 0.01 0.01 0.10 0.22 0.31 0.20 0.18
0.00 0.00 0.00 0.00 0.00 0.00 0.00 0.00 0.00 0.00 0.00 0.00 0.00 0.00 0.00 0.00 0.00 0.00 0.00 0.00 0.00 0.00 0.00 0.00 0.00 0.00 0.01 0.11 0.27 0.25 0.33 0.27
0.00 0.00 0.00 0.00 0.00 0.00 0.00 0.00 0.00 0.00 0.00 0.00 0.00 0.01 0.03 0.02 0.00 0.00 0.00 0.00 0.00 0.00 0.00 0.00 0.00 0.00 0.00 0.02 0.14 0.45 0.56 0.60
0.00 0.00 0.00 0.00 0.00 0.00 0.00 0.00 0.00 0.00 0.00 0.00 0.01 0.02 0.06 0.04 0.05 0.00 0.00 0.00 0.00 0.00 0.00 0.00 0.00 0.01 0.02 0.03 0.08 0.13 0.25 0.47
0.00 0.00 0.00 0.00 0.00 0.00 0.00 0.00 0.00 0.00 0.00 0.01 0.01 0.02 0.04 0.03 0.02 0.00 0.00 0.00 0.00 0.00 0.00 0.00 0.00 0.01 0.02 0.04 0.08 0.08 0.13 0.28
0.00 0.00 0.00 0.00 0.00 0.00 0.00 0.00 0.00 0.00 0.00 0.01 0.01 0.01 0.02 0.01 0.01 0.01 0.00 0.00 0.00 0.00 0.01 0.02 0.01 0.00 0.00 0.00 0.03 0.06 0.13 0.26
0.00 0.00 0.00 0.00 0.00 0.00 0.00 0.00 0.00 0.00 0.00 0.00 0.01 0.00 0.01 0.01 0.01 0.01 0.00 0.00 0.00 0.00 0.02 0.00 0.00 0.00 0.00 0.00 0.01 0.04 0.09 0.25
0.00 0.00 0.00 0.00 0.00 0.00 0.00 0.00 0.00 0.00 0.00 0.00 0.01 0.00 0.00 0.00 0.01 0.01 0.01 0.00 0.01 0.02 0.03 0.01 0.00 0.00 0.00 0.00 0.00 0.01 0.04 0.12
0.00 0.00 0.00 0.00 0.00 0.00 0.00 0.00 0.00 0.00 0.00 0.00 0.00 0.00 0.00 0.00 0.00 0.00 0.01 0.01 0.00 0.01 0.01 0.01 0.00 0.00 0.00 0.00 0.00 0.00 0.00 0.04
0.00 0.00 0.00 0.00 0.01 0.00 0.00 0.00 0.00 0.00 0.00 0.00 0.00 0.00 0.00 0.00 0.00 0.00 0.01 0.01 0.00 0.00 0.01 0.01 0.01 0.00 0.00 0.00 0.00 0.00 0.00 0.01
0.00 0.00 0.00 0.01 0.05 0.02 0.00 0.00 0.00 0.00 0.00 0.00 0.00 0.00 0.00 0.00 0.00 0.00 0.00 0.01 0.01 0.00 0.00 0.00 0.01 0.01 0.00 0.01 0.01 0.00 0.01 0.01
0.00 0.00 0.00 0.03 0.09 0.05 0.01 0.02 0.00 0.00 0.00 0.00 0.00 0.00 0.00 0.00 0.00 0.00 0.00 0.01 0.01 0.00 0.00 0.00 0.01 0.02 0.02 0.02 0.03 0.02 0.01 0.01
0.00 0.01 0.00 0.01 0.02 0.13 0.10 0.04 0.00 0.00 0.00 0.00 0.00 0.00 0.00 0.00 0.00 0.00 0.00 0.00 0.01 0.01 0.01 0.01 0.01 0.02 0.03 0.03 0.05 0.04 0.03 0.01
0.00 0.01 0.01 0.07 0.15 0.16 0.15 0.05 0.01 0.00 0.00 0.00 0.00 0.00 0.00 0.00 0.00 0.00 0.00 0.00 0.00 0.01 0.00 0.01 0.02 0.02 0.02 0.03 0.04 0.02 0.01 0.01
0.00 0.00 0.04 0.15 0.22 0.05 0.13 0.06 0.01 0.00 0.00 0.00 0.01 0.00 0.00 0.00 0.00 0.00 0.00 0.00 0.00 0.00 0.01 0.02 0.02 0.02 0.02 0.02 0.03 0.01 0.01 0.01
0.00 0.00 0.04 0.11 0.14 0.08 0.11 0.11 0.06 0.01 0.01 0.01 0.04 0.03 0.00 0.00 0.00 0.00 0.00 0.00 0.00 0.00 0.00 0.02 0.02 0.02 0.01 0.02 0.03 0.03 0.02 0.02
0.01 0.01 0.03 0.17 0.22 0.28 0.29 0.33 0.19 0.09 0.02 0.01 0.01 0.01 0.01 0.00 0.00 0.00 0.00 0.00 0.00 0.01 0.01 0.01 0.02 0.02 0.03 0.04 0.03 0.05 0.03 0.03
0.06 0.03 0.09 0.16 0.34 0.42 0.34 0.57 0.73 0.55 0.33 0.11 0.03 0.05 0.01 0.01 0.01 0.01 0.01 0.01 0.01 0.01 0.02 0.02 0.03 0.03 0.04 0.04 0.05 0.04 0.04 0.05
0.17 0.07 0.12 0.17 0.27 0.40 0.41 0.38 0.43 0.48 0.71 0.72 0.16 0.04 0.02 0.04 0.09 0.10 0.08 0.05 0.03 0.03 0.03 0.03 0.03 0.04 0.04 0.05 0.07 0.09 0.11 0.16

GFSFLT2_prec_precacc12_129.txt.gz
Total_Precipitation_Accumulation
0.00 0.00 0.00 0.00 0.00 0.00 0.00 0.00 0.00 0.00 0.00 0.00 0.01 0.03 0.00 0.00 0.02 0.03 0.00 0.02 0.02 0.00 0.00 0.00 0.00 0.00 0.00 0.01 0.06 0.17 0.32 0.39
0.00 0.01 0.00 0.00 0.00 0.00 0.00 0.00 0.00 0.00 0.00 0.00 0.00 0.03 0.01 0.00 0.00 0.01 0.00 0.01 0.00 0.00 0.00 0.00 0.00 0.01 0.00 0.08 0.19 0.24 0.22 0.38
0.01 0.01 0.01 0.00 0.00 0.00 0.00 0.00 0.00 0.00 0.00 0.00 0.00 0.00 0.00 0.00 0.00 0.00 0.02 0.03 0.01 0.00 0.00 0.00 0.00 0.00 0.01 0.07 0.06 0.10 0.25 0.35
0.00 0.01 0.05 0.04 0.00 0.00 0.00 0.00 0.00 0.00 0.00 0.00 0.00 0.01 0.03 0.02 0.00 0.00 0.00 0.01 0.00 0.00 0.00 0.00 0.00 0.00 0.00 0.01 0.04 0.12 0.23 0.35
0.00 0.00 0.04 0.12 0.13 0.04 0.00 0.00 0.00 0.00 0.00 0.01 0.01 0.02 0.07 0.05 0.06 0.00 0.00 0.00 0.00 0.00 0.00 0.00 0.00 0.02 0.02 0.03 0.08 0.04 0.12 0.31
0.00 0.00 0.01 0.01 0.05 0.16 0.11 0.01 0.00 0.00 0.00 0.01 0.02 0.02 0.06 0.06 0.04 0.01 0.00 0.00 0.00 0.00 0.00 0.00 0.00 0.02 0.03 0.05 0.09 0.05 0.10 0.29
0.00 0.00 0.00 0.00 0.00 0.01 0.06 0.06 0.01 0.00 0.00 0.01 0.02 0.01 0.05 0.04 0.04 0.02 0.00 0.00 0.01 0.00 0.01 0.02 0.01 0.02 0.03 0.01 0.03 0.07 0.10 0.21
0.00 0.00 0.00 0.00 0.00 0.00 0.01 0.01 0.01 0.01 0.00 0.00 0.02 0.01 0.02 0.04 0.03 0.02 0.00 0.01 0.00 0.01 0.02 0.00 0.01 0.01 0.01 0.01 0.01 0.04 0.08 0.13
0.00 0.00 0.00 0.00 0.01 0.00 0.01 0.03 0.09 0.02 0.01 0.00 0.01 0.01 0.01 0.01 0.01 0.02 0.01 0.01 0.01 0.02 0.04 0.01 0.01 0.01 0.01 0.00 0.01 0.01 0.05 0.07
0.00 0.00 0.00 0.00 0.02 0.04 0.07 0.06 0.04 0.08 0.03 0.01 0.01 0.01 0.01 0.01 0.01 0.00 0.01 0.01 0.01 0.02 0.03 0.03 0.02 0.01 0.01 0.01 0.00 0.00 0.00 0.04
0.00 0.00 0.00 0.00 0.05 0.08 0.06 0.04 0.11 0.26 0.10 0.01 0.01 0.01 0.00 0.00 0.01 0.00 0.02 0.01 0.01 0.01 0.03 0.04 0.01 0.01 0.00 0.01 0.01 0.00 0.01 0.01
0.00 0.00 0.00 0.01 0.07 0.09 0.08 0.11 0.21 0.26 0.14 0.08 0.01 0.01 0.01 0.00 0.00 0.01 0.01 0.02 0.01 0.01 0.02 0.01 0.01 0.02 0.01 0.00 0.01 0.00 0.01 0.01
0.00 0.00 0.00 0.03 0.10 0.11 0.12 0.11 0.13 0.16 0.12 0.10 0.05 0.01 0.01 0.00 0.00 0.01 0.01 0.01 0.01 0.00 0.01 0.02 0.02 0.03 0.02 0.02 0.02 0.01 0.01 0.01
0.00 0.00 0.00 0.00 0.02 0.07 0.14 0.19 0.17 0.15 0.17 0.15 0.15 0.03 0.00 0.00 0.00 0.00 0.00 0.00 0.01 0.01 0.01 0.01 0.02 0.03 0.02 0.02 0.02 0.02 0.01 0.00
0.00 0.00 0.00 0.00 0.00 0.03 0.14 0.23 0.21 0.20 0.19 0.16 0.18 0.14 0.01 0.00 0.00 0.00 0.00 0.00 0.00 0.00 0.01 0.01 0.01 0.02 0.01 0.01 0.01 0.00 0.00 0.00
0.00 0.00 0.01 0.03 0.03 0.03 0.14 0.12 0.11 0.10 0.13 0.13 0.20 0.21 0.06 0.00 0.00 0.00 0.00 0.00 0.00 0.00 0.00 0.00 0.01 0.01 0.01 0.00 0.00 0.00 0.01 0.01
0.00 0.00 0.04 0.10 0.12 0.07 0.16 0.18 0.10 0.09 0.10 0.14 0.18 0.23 0.13 0.02 0.00 0.01 0.00 0.00 0.00 0.00 0.00 0.01 0.01 0.01 0.01 0.00 0.00 0.01 0.01 0.01
0.01 0.01 0.03 0.16 0.21 0.26 0.34 0.42 0.32 0.17 0.10 0.13 0.20 0.29 0.16 0.04 0.01 0.01 0.01 0.01 0.00 0.00 0.00 0.01 0.01 0.01 0.02 0.01 0.01 0.01 0.01 0.03
0.08 0.05 0.09 0.17 0.34 0.42 0.39 0.72 0.99 0.91 0.58 0.31 0.35 0.45 0.31 0.11 0.02 0.01 0.02 0.01 0.01 0.01 0.01 0.01 0.01 0.02 0.03 0.02 0.02 0.01 0.01 0.01
0.29 0.16 0.20 0.22 0.31 0.42 0.45 0.49 0.68 1.27 1.55 1.70 1.20 0.86 0.66 0.30 0.18 0.16 0.09 0.06 0.06 0.06 0.04 0.05 0.04 0.04 0.05 0.04 0.04 0.02 0.04 0.07

GFSFLT2_prec_precacc12_132.txt.gz
Total_Precipitation_Accumulation
0.00 0.00 0.00 0.00 0.00 0.00 0.00 0.00 0.00 0.00 0.00 0.00 0.01 0.03 0.00 0.00 0.02 0.03 0.00 0.01 0.01 0.00 0.00 0.00 0.00 0.00 0.00 0.00 0.04 0.08 0.27 0.39
0.00 0.01 0.00 0.00 0.00 0.00 0.00 0.00 0.00 0.00 0.00 0.00 0.00 0.02 0.01 0.00 0.00 0.01 0.00 0.01 0.00 0.00 0.00 0.00 0.00 0.00 0.00 0.04 0.04 0.06 0.14 0.32
0.01 0.01 0.01 0.00 0.00 0.00 0.00 0.00 0.00 0.00 0.00 0.00 0.00 0.00 0.00 0.00 0.00 0.00 0.02 0.03 0.01 0.00 0.00 0.00 0.00 0.00 0.00 0.00 0.00 0.04 0.13 0.25
0.00 0.01 0.06 0.06 0.00 0.00 0.00 0.00 0.00 0.00 0.00 0.00 0.00 0.00 0.01 0.02 0.00 0.00 0.00 0.01 0.00 0.00 0.00 0.00 0.00 0.00 0.00 0.00 0.01 0.08 0.15 0.24
0.00 0.00 0.04 0.14 0.17 0.06 0.02 0.00 0.00 0.00 0.00 0.00 0.00 0.01 0.05 0.04 0.06 0.00 0.00 0.00 0.00 0.00 0.00 0.00 0.00 0.01 0.02 0.00 0.02 0.02 0.08 0.25
0.00 0.00 0.01 0.02 0.07 0.19 0.22 0.16 0.06 0.00 0.00 0.01 0.01 0.02 0.05 0.06 0.04 0.01 0.00 0.00 0.00 0.00 0.00 0.00 0.00 0.02 0.02 0.04 0.05 0.03 0.06 0.20
0.00 0.00 0.00 0.00 0.00 0.02 0.09 0.16 0.08 0.07 0.03 0.01 0.01 0.01 0.04 0.03 0.04 0.02 0.00 0.00 0.01 0.00 0.01 0.02 0.01 0.03 0.04 0.01 0.02 0.04 0.04 0.11
0.00 0.00 0.00 0.00 0.00 0.00 0.01 0.03 0.16 0.20 0.09 0.03 0.02 0.01 0.02 0.03 0.02 0.02 0.00 0.01 0.00 0.00 0.01 0.00 0.01 0.01 0.03 0.05 0.01 0.02 0.03 0.07
0.00 0.00 0.00 0.00 0.01 0.00 0.01 0.03 0.15 0.11 0.15 0.15 0.04 0.01 0.01 0.01 0.01 0.02 0.00 0.00 0.01 0.02 0.03 0.01 0.01 0.01 0.02 0.06 0.02 0.01 0.02 0.03
0.00 0.00 0.00 0.00 0.02 0.04 0.07 0.06 0.04 0.10 0.12 0.16 0.09 0.02 0.01 0.01 0.01 0.00 0.01 0.01 0.00 0.02 0.03 0.02 0.02 0.02 0.02 0.02 0.01 0.00 0.00 0.02
0.00 0.00 0.00 0.00 0.05 0.08 0.06 0.04 0.11 0.28 0.19 0.14 0.14 0.15 0.04 0.01 0.01 0.00 0.01 0.01 0.01 0.02 0.03 0.04 0.02 0.01 0.02 0.05 0.04 0.01 0.01 0.01
0.00 0.00 0.00 0.01 0.07 0.09 0.08 0.11 0.21 0.27 0.17 0.17 0.17 0.27 0.24 0.08 0.01 0.01 0.02 0.02 0.01 0.01 0.02 0.02 0.01 0.01 0.01 0.02 0.04 0.03 0.02 0.02
0.00 0.00 0.00 0.02 0.10 0.11 0.12 0.11 0.13 0.16 0.15 0.14 0.22 0.32 0.37 0.22 0.05 0.02 0.02 0.01 0.01 0.00 0.02 0.02 0.02 0.02 0.02 0.02 0.02 0.02 0.03 0.03
0.00 0.00 0.00 0.00 0.02 0.07 0.14 0.19 0.17 0.15 0.18 0.17 0.25 0.30 0.36 0.31 0.14 0.04 0.01 0.01 0.01 0.01 0.01 0.01 0.02 0.03 0.02 0.02 0.03 0.02 0.01 0.01
0.00 0.00 0.00 0.00 0.00 0.03 0.14 0.22 0.21 0.20 0.19 0.16 0.22 0.30 0.29 0.28 0.26 0.11 0.05 0.02 0.00 0.00 0.00 0.00 0.01 0.02 0.01 0.01 0.01 0.00 0.00 0.00
0.00 0.00 0.00 0.01 0.01 0.03 0.14 0.12 0.11 0.10 0.13 0.13 0.21 0.30 0.29 0.26 0.22 0.17 0.07 0.02 0.00 0.00 0.00 0.00 0.00 0.01 0.01 0.00 0.00 0.00 0.00 0.00
0.00 0.00 0.00 0.04 0.09 0.05 0.13 0.18 0.10 0.09 0.10 0.14 0.17 0.26 0.28 0.32 0.38 0.20 0.08 0.04 0.01 0.00 0.00 0.01 0.01 0.00 0.00 0.00 0.00 0.00 0.00 0.00
0.01 0.01 0.02 0.03 0.09 0.15 0.19 0.28 0.30 0.17 0.10 0.13 0.20 0.30 0.25 0.37 0.49 0.64 0.30 0.06 0.01 0.00 0.00 0.01 0.01 0.01 0.01 0.01 0.00 0.00 0.00 0.03
0.08 0.04 0.08 0.09 0.19 0.21 0.27 0.53 0.88 0.91 0.58 0.31 0.35 0.44 0.35 0.33 0.50 0.79 0.50 0.13 0.03 0.02 0.01 0.01 0.01 0.01 0.02 0.01 0.01 0.01 0.00 0.00
0.27 0.16 0.20 0.21 0.26 0.31 0.38 0.41 0.66 1.28 1.55 1.69 1.19 0.87 0.70 0.59 0.64 0.64 0.71 0.36 0.10 0.07 0.05 0.05 0.04 0.03 0.04 0.04 0.04 0.02 0.04 0.06